sat.trackr.live / text

‹ back to catalog

STARLINK-33814

NORAD 63582 · 2025-076P

PAYLOAD ACTIVE UNKNOWN

§ Identity

Operator
Country
US
Launch date
2025-04-14
Launch site
AFETR
Launch vehicle
Mass (kg)
RCS (m²)

Purposes: comms

External: N2YO · Heavens-Above · Gunter

§ Orbital elements

Epoch: 2026-05-24T23:56:01.871232Z

Period
94.27 min
Inclination
42.9987°
Eccentricity
0.0001253
Mean motion
15.27587208 rev/d
Perigee alt
482.2 km
Apogee alt
483.9 km
Semi-major
6,861.2 km
B*
8.2515e-4
RAAN
250.4891°
Arg perigee
281.1878°
Mean anomaly
78.8832°
Rev number
6,350

§ Raw data

STARLINK-338141 63582U 25076P   26144.99724388  .00022519  00000+0  82515-3 0  99932 63582  42.9987 250.4891 0001253 281.1878  78.8832 15.27587208 63505

JSON: /api/v1/satellites/63582 · /tle

For live sub-satellite position, see the globe view (requires WebGL).

§ Visibility from observer

Set your observer location to see the next 7 days of passes ≥ 10°. The values pass through the URL so the page stays shareable.

No JS? Fill the form by hand. The geolocation button needs JavaScript.